www.pogodaiklimat.ru

Погода и климат >> Архив погоды >> Латвия >> Даугавпилс


АРХИВ ПОГОДЫ в Даугавпилсе

Время (UTC), дата Ветер
(напр.,м/с)
 
Видим.   Явления Облачность Т
(С)
Тd
(С)
f
(%)
Тe
(С)
Тes
(С)
Комфортность P
(гПа)
Po
(гПа)
Тmin
(С)
Tmax
(С)
R
(мм)
R24
(мм)
S
(см)
12 17.06 Ю 3-5
{6}
15 км 9/5 300 м
[]
+18.7 +16.4 86 +20 +23 тепло 1015.8 1004.2
15 17.06 З 2-4
{6}
20 км 10/10 600 м
[]
+20.8 +16.3 75 +25 +25 комфорт 1015.5 1004.0
18 17.06 СЗ 3-6
{7}
20 км 10/10 300 м
[]
+18.0 +15.4 85 +18 +18 тепло 1016.9 1005.2
21 17.06 З 1-2
{2}
20 км ясно +14.9 +14.7 99 +15 +15 тепло 1018.1 1006.3
00 18.06 З 1-3
{5}
20 км ясно +13.8 +12.3 91 +14 +14 тепло 1019.5 1007.6
03 18.06 З 1-1
{1}
18 км ясно +11.3 +11.1 99 +11 +12 по сезону 1020.1 1008.1
06 18.06 З 2-3
{4}
20 км ясно +18.7 +11.9 65 +20 +27 тепло 1020.2 1008.5
09 18.06 З 3-6
{7}
20 км ясно +22.8 +9.5 43 +24 +37 комфорт 1020.0 1008.5
12 18.06 З 4-6
{7}
20 км 6/6 1500 м
[]
+24.3 +9.0 38 +25 +29 комфорт 1019.7 1008.2
15 18.06 СЗ 3-6
{7}
20 км 5/5 1500 м
[]
+24.8 +9.6 38 +26 +26 жарко 1018.6 1007.2
18 18.06 СЗ 2-3
{6}
20 км ясно +23.0 +11.0 47 +25 +25 комфорт 1018.2 1006.7
21 18.06 штиль 0
{1}
20 км н/о +13.4 +11.7 89 +13 +13 по сезону 1019.3 1007.4
00 19.06 штиль 0-1
{1}
7000 м н/о +10.8 +10.6 99 +10 +10 по сезону 1020.0 1008.0
03 19.06 штиль 0-1
{1}
1900 м 1/1 50 м
[]
+11.2 +11.1 99 +10 +11 прохладно 1019.9 1007.9
06 19.06 ЮВ 1-3
{3}
20 км ясно +22.1 +12.8 56 +25 +25 комфорт 1019.1 1007.6 0
09 19.06 Ю 2-4
{5}
20 км ясно +25.1 +10.8 41 +26 +41 жарко 1018.7 1007.3
12 19.06 Ю 2-5
{6}
20 км ясно +27.0 +9.7 34 +27 +41 жарко 1017.4 1006.0
15 19.06 Ю 2-4
{6}
20 км ясно +27.8 +10.0 33 +28 +34 жарко 1015.5 1004.2
18 19.06 В 1-1
{3}
17 км н/о +25.1 +11.2 42 +26 +27 жарко 1014.6 1003.2
21 19.06 В 1-1
{2}
14 км ясно +15.4 +14.4 94 +16 +16 тепло 1015.3 1003.5
00 20.06 В 1-1
{2}
6000 м н/о +13.2 +13.1 99 +13 +13 тепло 1015.2 1003.3
03 20.06 В 1-1
{2}
15 км ясно +13.6 +13.4 99 +14 +14 по сезону 1015.2 1003.4
06 20.06 Ю 3-5
{5}
20 км 9/0
[]
+24.3 +11.5 45 +26 +26 жарко 1014.3 1002.9 0
09 20.06 Ю 3-6
{7}
20 км 1/0
[]
+27.2 +12.4 40 +29 +40 жарко 1014.0 1002.7
12 20.06 Ю 2-3
{4}
20 км н/о +28.1 +11.1 35 +29 +29 жарко 1012.8 1001.5
15 20.06 ЮВ 3-5
{7}
20 км 9/0
[]
+28.3 +12.5 38 +30 +30 жарко 1011.2 1000.0
18 20.06 В 3-4
{5}
14 км н/о +24.0 +14.9 57 +27 +27 жарко 1011.6 1000.2
21 20.06 ЮВ 2-4
{4}
20 км 9/0
[]
+22.0 +15.5 67 +26 +26 душно 1012.0 1000.5
00 21.06 Ю 2-4
{4}
20 км н/о +20.5 +16.9 80 +24 +24 комфорт 1011.9 1000.4
03 21.06 Ю 1-2
{3}
20 км 10/0
[]
+19.5 +17.4 88 +23 +23 комфорт 1012.0 1000.5
06 21.06 Ю 2-4
{4}
19 км н/о +22.7 +18.4 77 +28 +32 душно 1012.4 1001.0
09 21.06 Ю 3-5
{5}
20 км 4/0
[]
+26.6 +17.9 59 +31 +38 душно 1012.8 1001.5
12 21.06 Ю 2-6
{6}
20 км 9/9 1000 м
[]
+27.7 +18.6 58 +33 +38 очень
душно
1012.6 1001.4
15 21.06 З 3-6
{7}
20 км 8/0
[]
+25.2 +17.3 62 +29 +31 душно 1012.9 1001.6
18 21.06 штиль 0-1
{2}
19 км н/о +21.6 +18.9 85 +27 +27 душно 1013.0 1001.5
21 21.06 Ю 1-2
{3}
12 км 10/0
[]
+19.6 +18.7 95 +23 +23 комфорт 1014.1 1002.5
00 22.06 ЮЗ 1-2
{2}
12 км н/о +18.5 +18.1 98 +20 +20 тепло 1014.2 1002.6
03 22.06 Ю 1-2
{3}
6000 м 10/10 1000 м
[]
+18.5 +17.9 96 +20 +21 тепло 1015.5 1003.9 1
06 22.06 -5
{6}
20 км н/о +19.3 +16.1 82 1017.0 1005.4
09 22.06 З 5-8
{8}
20 км 1/1 1000 м
[]
+21.9 +10.6 49 +24 +31 комфорт 1018.7 1007.1
12 22.06 З 4-7
{9}
20 км 1/1 1500 м
[]
+23.7 +7.7 36 +24 +33 комфорт 1019.5 1008.0
15 22.06 З 3-7
{8}
20 км ясно +23.4 +7.0 35 +24 +29 комфорт 1019.6 1008.1
18 22.06 З 2-4
{6}
20 км н/о +21.3 +7.4 41 +22 +22 комфорт 1020.5 1008.9
21 22.06 С 1-2
{3}
20 км ясно +15.7 +8.6 63 +16 +16 тепло 1022.7 1010.8
00 23.06 С 1-1
{2}
20 км ясно +10.3 +8.3 87 +10 +10 по сезону 1023.5 1011.4
03 23.06 Ю 1-1
{1}
20 км ясно +11.0 +9.5 90 +11 +11 по сезону 1024.9 1012.8
06 23.06 В 1-2
{3}
20 км ясно +16.7 +9.1 61 +18 +18 тепло 1024.8 1013.2
09 23.06 ЮВ 1-3
{5}
20 км н/о +21.0 +4.5 34 +23 +40 комфорт 1023.9 1012.2
12 23.06 СВ 2-4
{6}
20 км ясно +23.6 +4.0 28 +23 +37 комфорт 1023.5 1011.9
15 23.06 СВ 2-4
{6}
17 км н/о +23.6 +4.0 28 +23 +29 комфорт 1022.3 1010.7
18 23.06 С 2-3
{5}
20 км н/о +21.0 +6.1 38 +23 +23 комфорт 1022.6 1010.9
21 23.06 штиль 0
{1}
20 км ясно +10.9 +7.5 80 +10 +10 прохладно 1024.8 1012.7
00 24.06 штиль 0-1
{1}
14 км ясно +8.6 +7.3 92 +8 +8 прохладно 1026.0 1013.8
03 24.06 штиль 0-1
{1}
2900 м н/о +9.3 +9.2 99 +8 +8 холодно 1026.6 1014.4
06 24.06 С 3-5
{5}
20 км 3/0
[]
+19.3 +9.7 54 +20 +25 тепло 1027.1 1015.3 0

 

Местоположение метеостанции Даугавпилс (Латвия): широта 55.87 долгота 26.62 высота над уровнем моря 122 м.

В архиве по умолчанию представлена погода в Даугавпилсе за последнюю неделю. Архивные данные за месяц целиком и за предыдущие месяцы, начиная с января 2011 года, Вы можете получить, выбрав интересующий диапазон дат из раскрывающегося списка и нажав кнопку "Ввод!".


*Определитесь, кто Вы:
робот инопланетянин человек

Внимание! Время в таблицах - всемирное. Для получения местного времени необходимо прибавить поправку, которая равна 2 ч.

Смотрите также архив погоды в соседних городах и на ближайших метеорологических станциях:

Погода в Дукштасе (Литва) (43 км)
Погода в Утене (Литва) (74 км)
Погода в Шарковщине (Витебская область, Беларусь) (77 км)
Погода в Верхнедвинске (Витебская область, Беларусь) (83 км)
Погода в Резекне (Латвия) (84 км)
Погода в Зилани (Латвия) (84 км)
Погода в Швенчёнисе (Литва) (85 км)
Погода в Лынтупах (Витебская область, Беларусь) (93 км)
Погода в Нарочи (Минская область, Беларусь) (104 км)
Погода в Мадоне (Латвия) (111 км)

Пояснения к столбцам:

Ветер - указаны скорость ветра в м/с - средняя за 10 мин, порывы в срок и между сроками (в фигурных скобках) и направление, откуда дует ветер: С - северный, СВ - северо-восточный, В - восточный, ЮВ - юго-восточный, Ю - южный, ЮЗ - юго-западный, З - западный, СЗ - северо-западный.
Видимость - горизонтальная дальность видимости в метрах или километрах. При видимости от 1 до 10 км при отсутствии осадков обычно наблюдается дымка, при ухудшении видимости до 1 км и менее - туман. В сухую погоду видимость может ухудшаться дымом, пылью или мглою.
Явления - указаны атмосферные явления, наблюдавшиеся в срок или в последний час перед сроком; фигурными скобками обозначены явления, наблюдавшиеся между сроками (за 1-3 часа до срока); квадратными скобками обозначены град или гололедные отложения с указанием их диаметра в мм.
Облачность - указаны через наклонную черту общая и нижняя облачность в баллах и высота нижней границы облаков в метрах; квадратными скобками обозначены формы облаков: Ci - перистые, Cs - перисто-слоистые, Cc - перисто-кучевые, Ac - высококучевые, As - высокослоистые, Sc - слоисто-кучевые, Ns - слоисто-дождевые, Cu - кучевые, Cb - кучево-дождевые. Подробнее классификацию облаков см. в Атласе облаков (PDF).
T - Температура воздуха - температура, измеренная на высоте 2 м над землей.
Td - Температура точки росы - температура, при понижении до которой содержащийся в воздухе водяной пар достигнет насыщения.
f - Относительная влажность воздуха - влажноcть воздуха, измеренная на высоте 2 м над землей.
Te - Эффективная температура - температура, которую ощущает одетый по сезону человек в тени. Характеристика душности погоды. При расчете учитывается влияние влажности воздуха и скорости ветра на теплоощущения человека.
Tes - Эффективная температура на солнце - температура, которую ощущает человек, с поправкой на солнечный нагрев. Характеристика знойности погоды. Зависит от высоты солнца над горизонтом, облачности и скорости ветра. Ночью, в пасмурную погоду, а также при ветре 12 м/с и более поправка равна нулю.
P - Атмосферное давление - приведенное к уровню моря атмосферное давление.
Po - Атмосферное давление - измеренное на уровне метеостанции атмосферное давление.
Tmin - Минимальная температура - минимум температуры воздуха на высоте 2 м над землей.
Tmax - Максимальная температура - максимум температуры воздуха на высоте 2 м над землей.
R - Количество осадков - Количество выпавших осадков за период времени, мм. При наведении курсора мыши на число - период времени, за который выпало указанное количество осадков.
R24 - Количество осадков - Количество выпавших осадков за 24 часа, мм.
S - Снежный покров - Высота снежного покрова, см. При наведении курсора мыши на число - состояние снежного покрова и степень покрытия местности в баллах.